Overview Statistics Trail Chart Weather Telemetry Raw packets
 

This is the latest recevied weather packets stored in our database for station/object N4DWK. If no packets are shown the sender has not sent any weather packets the latest 10 day(s).

<< 34 35 36 37 38 39 40 >>
Time Temp. Humidity Pressure Rain* Wind** Luminosity Snow
1788381306 35.56° C 62% 1016.5 hPa 0 mm - 357 W/m² -
1788381006 35° C 63% 1016.5 hPa 0 mm - 369 W/m² -
1788380705 34.44° C 64% 1016.5 hPa 0 mm - 383 W/m² -
1788380405 35° C 61% 1016.6 hPa 0 mm - 44 W/m² -
1788380105 35.56° C 60% 1016.6 hPa 0 mm - 67 W/m² -
1788379806 36.11° C 59% 1016.6 hPa 0 mm - 135 W/m² -
1788379505 36.11° C 60% 1016.7 hPa 0 mm - 422 W/m² -
1788379219 36.11° C 60% 1016.7 hPa 0 mm - 415 W/m² -
1788378907 36.11° C 56% 1016.7 hPa 0 mm - 83 W/m² -
1788378606 36.67° C 57% 1016.6 hPa 0 mm - 65 W/m² -
1788378305 35.56° C 61% 1016.4 hPa 0 mm - 497 W/m² -
1788378005 35.56° C 60% 1016.4 hPa 0 mm - 494 W/m² -
1788377706 36.11° C 60% 1016.4 hPa 0 mm - 149 W/m² -
1788377434 36.11° C 59% 1016.4 hPa 0 mm - 510 W/m² -
1788377106 36.67° C 57% 1016.4 hPa 0 mm - 517 W/m² -
1788376805 35.56° C 60% 1016.5 hPa 0 mm - 526 W/m² -
1788376505 36.67° C 57% 1016.5 hPa 0 mm - 111 W/m² -
1788376205 37.22° C 55% 1016.6 hPa 0 mm - 526 W/m² -
1788375905 37.78° C 57% 1016.6 hPa 0 mm - 524 W/m² -
1788375607 37.22° C 55% 1016.7 hPa 0 mm - 533 W/m² -
1788375306 36.67° C 55% 1016.7 hPa 0 mm - 536 W/m² -
1788375005 36.11° C 58% 1016.8 hPa 0 mm - 543 W/m² -
1788374706 36.67° C 56% 1016.9 hPa 0 mm - 541 W/m² -
1788374406 36.67° C 57% 1017 hPa 0 mm - 538 W/m² -
1788374105 36.67° C 56% 1017.1 hPa 0 mm - 534 W/m² -

* Rain latest hour (hover to see other rain measurements)
** Current wind speed in m/s (hover to see current wind gust speed)